THORAD DELTA 1 DEB, 42614

Orbit data source: Space-Track

THORAD DELTA 1 DEB, 42614 is space debris in SSO originally from a launch on Fri, 15 Nov 1974 UTC launched from the Air Force Western Test Range (AFWTR). Debris objects in space refer to the collection of defunct objects orbiting the Earth. Examples of debris include non-operational satellites, rocket bodies, and fragments generated from explosions, collisions, or faulty payload assembly.

Loading next visibility...
Identifier
42614, 1974-089GF
Orbit
SSO
Country
Flag of USUS
Related business
Manufacturer
Unknown
Mission
Spacecraft
Bus & Motor
Unknown
Mass
Unknown
Launch date (UTC)
1974-11-15 (51 years ago)
Launch vehicle
Unknown
Launch site
Air Force Western Test Range (AFWTR)
Object type
Payload
Rocket body
Debris
Shape & HBR
Unknown shape, 0.1 m
Radar Cross Section
Small (<0.1 m²)

Expand to show TLE details & history
Last TLE update: 3 weeks ago

TLE from 3 weeks ago
0 THORAD DELTA 1 DEB
1 42614U 74089GF  25317.65651701  .00000566  00000-0  35304-2 0  9998
2 42614 101.8672 110.0997 0041291 228.3078 149.6976 12.59704508508846
Epoch: 2025-11-13T15:45Z
TLE epoch observation values (Epoch: 2025-11-13T15:45:23.069Z)
Latitude
17.83389°
Longitude
176.88503°
Altitude
1,454.05 km
Speed
7.124 km/s
True Right ascension
07h 04m 58s
True Declination
17° 44' 34"
Sunlit
Object was in full shadow at epoch
Visualization orbit readout
Latitude
Unknown
Longitude
Unknown
Altitude
Unknown
Speed
Unknown
Apparent Right ascension
Unknown
Apparent Declination
Unknown
Sunlit
N/A
Visualization observer readout
Local Sidereal Time
11:00:45
Azimuth
Unknown
Elevation
Unknown
Doppler factor
Unknown
Orbital elements
Apogee altitude
1,453.912 km
Perigee altitude
1,389.499 km
Semi-major axis
7,799.842 km
Eccentricity
0.00413
Inclination
101.8672°
RAAN
110.0997°
Arg. of periapsis
228.3078°
True anomaly
149.93528°
Mean anomaly
149.6976°
Eccentric anomaly
149.81655°
Mean motion
3.15075 °/min
Orbital period
114.26 mins
BSTAR
0.0035304
Loading maneuver chart data...
Computing Atmospheric mass density...

Documentation

Showing up to 5 results
|